Cecil Field, FL

2:05 PM EDT on May 28, 2017 (GMT -0400)
Cecil

Weather History for KVQQ - May, 2013

Change the Weather History Date:

Wednesday, May 1, 2013

  Actual Average (KNIP) Record (KNIP)
Temperature  
Mean Temperature 67 °F -  
Max Temperature 75 °F 79 °F 93 °F (2002)
Min Temperature 59 °F 63 °F 51 °F (1999)
Cooling Degree Days 2    
Growing Degree Days 17 (Base 50)    
Moisture  
Dew Point 63 °F    
Average Humidity 93    
Maximum Humidity 100    
Minimum Humidity 73    
Precipitation  
Precipitation 0.00 in - - ()
Sea Level Pressure  
Sea Level Pressure 30.04 in    
Wind  
Wind Speed 5 mph (NE)    
Max Wind Speed 16 mph    
Max Gust Speed 23 mph    
Visibility 7 miles    
Events Fog , Rain    
Averages and records for this station are not official NWS values.
T = Trace of Precipitation, MM = Missing Value Source: NWS Daily Summary

Daily Weather History Graph

Daily Weather History Graph

Search for Another Location

Airport or City:

Trip Planner

Search our weather history database for the weather conditions in past years. The results will help you decide how hot, cold, wet, or windy it might be!

Date:

Astronomy

May. 01, 2013 Rise Set
Actual Time 6:44 AM EDT 8:05 PM EDT
Civil Twilight 6:18 AM EDT 8:30 PM EDT
Nautical Twilight 5:48 AM EDT 9:01 PM EDT
Astronomical Twilight 5:16 AM EDT 9:32 PM EDT
Moon 1:12 AM EDT (5/1) 12:20 PM EDT (5/1)
Length of Visible Light 14h 12m
Length of Day
13h 21m
Waning Gibbous, 59% of the Moon is Illuminated
May 1
Waning Gibbous
May 2
Last Quarter
May 9
New
May 18
First Quarter
May 25
Full

Hourly Weather History & Observations

Time (EDT) Temp. Dew Point Humidity Pressure Visibility Wind Dir Wind Speed Gust Speed Precip Events Conditions
12:15 AM 62.6 °F 62.6 °F 100% 30.06 in 8.0 mi Calm Calm - N/A   Clear
12:35 AM 60.8 °F 60.8 °F 100% 30.05 in 8.0 mi Calm Calm - N/A   Clear
12:55 AM 59.0 °F 59.0 °F 100% 30.05 in 7.0 mi Calm Calm - N/A   Clear
1:15 AM 60.8 °F 60.8 °F 100% 30.04 in 8.0 mi Calm Calm - N/A   Clear
1:35 AM 59.0 °F 59.0 °F 100% 30.04 in 9.0 mi Calm Calm - N/A   Clear
1:55 AM 59.0 °F 59.0 °F 100% 30.04 in 7.0 mi Calm Calm - N/A   Clear
2:15 AM 59.0 °F 59.0 °F 100% 30.03 in 5.0 mi Calm Calm - N/A   Clear
2:35 AM 59.0 °F 59.0 °F 100% 30.02 in 5.0 mi Calm Calm - N/A   Clear
2:55 AM 59.0 °F 59.0 °F 100% 30.02 in 3.0 mi Calm Calm - N/A   Clear
3:15 AM 59.0 °F 59.0 °F 100% 30.01 in 8.0 mi Calm Calm - N/A   Partly Cloudy
3:35 AM 64.4 °F 64.4 °F 100% 30.01 in 0.5 mi NNE 6.9 mph - N/A Fog Fog
3:55 AM 64.4 °F 64.4 °F 100% 30.01 in 0.2 mi NNE 5.8 mph - N/A Fog Fog
4:15 AM 64.4 °F 64.4 °F 100% 30.00 in 1.8 mi NNE 8.1 mph - N/A   Overcast
4:35 AM 64.4 °F 64.4 °F 100% 30.00 in 2.5 mi NNE 9.2 mph - N/A   Overcast
4:55 AM 64.4 °F 64.4 °F 100% 29.99 in 3.0 mi NNE 5.8 mph - N/A   Mostly Cloudy
5:15 AM 64.4 °F 64.4 °F 100% 30.01 in 3.0 mi NE 3.5 mph - N/A   Overcast
5:35 AM 66.2 °F 66.2 °F 100% 30.01 in 4.0 mi NE 3.5 mph - N/A   Overcast
5:55 AM 64.4 °F 64.4 °F 100% 30.02 in 3.0 mi Calm Calm - N/A   Scattered Clouds
6:15 AM 64.4 °F 64.4 °F 100% 30.02 in 3.0 mi Calm Calm - N/A   Mostly Cloudy
6:35 AM 64.4 °F 64.4 °F 100% 30.03 in 4.0 mi ENE 3.5 mph - N/A   Overcast
6:50 AM 66.2 °F 66.2 °F 100% 30.03 in 5.0 mi ENE 5.8 mph - N/A   Overcast
7:50 AM 66.2 °F 66.2 °F 100% 30.04 in 5.0 mi NE 5.8 mph - N/A   Mostly Cloudy
8:50 AM 69.8 °F 66.2 °F 88% 30.06 in 7.0 mi NE 11.5 mph - N/A   Mostly Cloudy
9:50 AM 73.4 °F 66.2 °F 78% 30.05 in 10.0 mi ENE 16.1 mph - N/A   Mostly Cloudy
10:50 AM 75.2 °F 66.2 °F 73% 30.06 in 10.0 mi ENE 13.8 mph - N/A   Mostly Cloudy
11:50 AM 75.2 °F 66.2 °F 73% 30.08 in 10.0 mi North 11.5 mph - N/A   Mostly Cloudy
12:50 PM 73.4 °F 66.2 °F 78% 30.07 in 10.0 mi ENE 15.0 mph - N/A   Mostly Cloudy
1:50 PM 73.4 °F 66.2 °F 78% 30.06 in 10.0 mi NE 11.5 mph - N/A   Mostly Cloudy
2:50 PM 73.4 °F 66.2 °F 78% 30.06 in 7.0 mi NE 13.8 mph - N/A   Mostly Cloudy
3:50 PM 71.6 °F 64.4 °F 78% 30.05 in 7.0 mi ENE 13.8 mph - N/A   Overcast
4:50 PM 69.8 °F 64.4 °F 83% 30.05 in 7.0 mi NE 11.5 mph - N/A   Overcast
5:50 PM 68.0 °F 62.6 °F 83% 30.06 in 7.0 mi ENE 16.1 mph 23.0 mph N/A   Overcast
6:50 PM 66.2 °F 62.6 °F 88% 30.06 in 7.0 mi ENE 9.2 mph 21.9 mph N/A   Overcast
7:50 PM 66.2 °F 62.6 °F 88% 30.06 in 7.0 mi ENE 11.5 mph - N/A   Overcast
8:15 PM 66.2 °F 62.6 °F 88% 30.06 in 10.0 mi NNE 11.5 mph - N/A   Overcast
8:35 PM 66.2 °F 62.6 °F 88% 30.06 in 10.0 mi NNE 10.4 mph - N/A   Overcast
8:55 PM 66.2 °F 62.6 °F 88% 30.06 in 10.0 mi NNE 11.5 mph - N/A   Overcast
9:15 PM 66.2 °F 62.6 °F 88% 30.06 in 10.0 mi NNE 11.5 mph - N/A   Overcast
9:35 PM 66.2 °F 62.6 °F 88% 30.07 in 10.0 mi NNE 11.5 mph - N/A   Overcast
9:55 PM 64.4 °F 62.6 °F 94% 30.07 in 10.0 mi NNE 9.2 mph - N/A   Overcast
10:35 PM 66.2 °F 62.6 °F 88% 30.08 in 10.0 mi NNE 9.2 mph - N/A   Overcast
10:55 PM 64.4 °F 62.6 °F 94% 30.07 in 5.0 mi North 9.2 mph - N/A Rain Light Rain
11:15 PM 64.4 °F 62.6 °F 94% 30.06 in 10.0 mi North 9.2 mph - N/A   Overcast
11:35 PM 64.4 °F 62.6 °F 94% 30.06 in 10.0 mi North 8.1 mph - N/A   Overcast
11:55 PM 64.4 °F 62.6 °F 94% 30.06 in 10.0 mi North 9.2 mph - N/A   Overcast